JRR4PD EETN-EPSC

Flight info

Callsign JRR4PD
Flight time 1h 22m
Altitude 36000
Route LONSA DCT TODNA P863 DEREX DCT DIPEB DCT GORPI Z80 TILAV L87 XELOL Z491 DEMUR DCT OBDEJ
Aircraft B38M/M-SDE1FGHILORVWXY/HB1

Departure

Time 2026-04-12 11:24
Airport Lennart Meri Tallinn Airport (EETN)

Arrival

Time 2026-04-12 12:46
Airport Solidarity Szczecin–Goleniów Airport (EPSC)
Time Latitude Longitude Altitude Speed Heading
2026-04-12 10:56 59.41580 24.80206 164 ft 0 kts
2026-04-12 11:14 59.41576 24.80206 164 ft 3 kts
2026-04-12 11:14 59.41551 24.80200 164 ft 4 kts 19°
2026-04-12 11:15 59.41531 24.80174 164 ft 4 kts 65°
2026-04-12 11:15 59.41528 24.80154 164 ft 0 kts 90°
2026-04-12 11:22 59.41528 24.80174 164 ft 4 kts 90°
2026-04-12 11:22 59.41528 24.80258 164 ft 9 kts 90°
2026-04-12 11:23 59.41524 24.80400 164 ft 12 kts 107°
2026-04-12 11:23 59.41455 24.80477 164 ft 13 kts 162°
2026-04-12 11:23 59.41378 24.80597 163 ft 16 kts 133°
2026-04-12 11:23 59.41331 24.80802 163 ft 18 kts 91°
2026-04-12 11:24 59.41329 24.81142 163 ft 46 kts 90°
2026-04-12 11:24 59.41327 24.82248 164 ft 115 kts 90°
2026-04-12 11:24 59.41322 24.84165 307 ft 154 kts 90°
2026-04-12 11:24 59.41307 24.86300 980 ft 160 kts 90°
2026-04-12 11:25 59.41265 24.88486 1834 ft 162 kts 99°
2026-04-12 11:25 59.40891 24.90610 2443 ft 171 kts 121°
2026-04-12 11:25 59.39921 24.92004 2989 ft 181 kts 162°
2026-04-12 11:25 59.38762 24.92293 3400 ft 154 kts 168°
2026-04-12 11:26 59.37716 24.92254 3719 ft 155 kts 199°
2026-04-12 11:26 59.36756 24.91229 4213 ft 159 kts 204°
2026-04-12 11:26 59.35752 24.90183 4574 ft 174 kts 204°
2026-04-12 11:26 59.34621 24.88991 4920 ft 195 kts 205°
2026-04-12 11:27 59.33358 24.87664 5230 ft 219 kts 205°
2026-04-12 11:27 59.31953 24.86208 5665 ft 238 kts 205°
2026-04-12 11:27 59.30433 24.84624 6110 ft 257 kts 206°
2026-04-12 11:27 59.28819 24.82937 6671 ft 270 kts 206°
2026-04-12 11:28 59.27151 24.81181 7409 ft 273 kts 206°
2026-04-12 11:28 59.25461 24.79394 8120 ft 279 kts 206°
2026-04-12 11:28 59.23827 24.77288 8826 ft 285 kts 224°
2026-04-12 11:28 59.22745 24.74032 9555 ft 292 kts 248°
2026-04-12 11:29 59.22106 24.70221 10238 ft 297 kts 252°
2026-04-12 11:29 59.21488 24.66361 10916 ft 300 kts 252°
2026-04-12 11:29 59.20868 24.62450 11609 ft 304 kts 252°
2026-04-12 11:29 59.20242 24.58487 12306 ft 308 kts 252°
2026-04-12 11:30 59.19609 24.54462 13024 ft 312 kts 252°
2026-04-12 11:30 59.18966 24.50375 13773 ft 317 kts 252°
2026-04-12 11:30 59.18313 24.46237 14481 ft 322 kts 252°
2026-04-12 11:30 59.17648 24.42033 15169 ft 326 kts 252°
2026-04-12 11:31 59.16983 24.37834 15847 ft 331 kts 252°
2026-04-12 11:31 59.16300 24.33529 16544 ft 335 kts 251°
2026-04-12 11:31 59.15606 24.29167 17228 ft 340 kts 251°
2026-04-12 11:31 59.14899 24.24742 17891 ft 344 kts 251°
2026-04-12 11:32 59.14180 24.20246 18551 ft 349 kts 251°
2026-04-12 11:32 59.13453 24.15709 19111 ft 353 kts 251°
2026-04-12 11:32 59.12715 24.11125 19674 ft 356 kts 251°
2026-04-12 11:32 59.11969 24.06501 20230 ft 360 kts 251°
2026-04-12 11:33 59.11213 24.01824 20779 ft 363 kts 251°
2026-04-12 11:33 59.10450 23.97113 21317 ft 367 kts 251°
2026-04-12 11:33 59.09678 23.92362 21858 ft 370 kts 251°
2026-04-12 11:33 59.08896 23.87567 22374 ft 374 kts 250°
2026-04-12 11:34 59.07778 23.83043 22894 ft 371 kts 230°
2026-04-12 11:34 59.06153 23.79155 23397 ft 373 kts 226°
2026-04-12 11:34 59.04495 23.75329 23881 ft 376 kts 226°
2026-04-12 11:34 59.02785 23.71459 24308 ft 379 kts 225°
2026-04-12 11:35 59.01052 23.67584 24745 ft 381 kts 225°
2026-04-12 11:35 58.99300 23.63703 25183 ft 383 kts 225°
2026-04-12 11:35 58.97534 23.59806 25619 ft 386 kts 225°
2026-04-12 11:35 58.95750 23.55882 26046 ft 388 kts 225°
2026-04-12 11:36 58.93957 23.51945 26475 ft 391 kts 224°
2026-04-12 11:36 58.92152 23.47989 26890 ft 393 kts 224°
2026-04-12 11:36 58.90338 23.44022 27397 ft 392 kts 224°
2026-04-12 11:36 58.88532 23.40077 27905 ft 391 kts 224°
2026-04-12 11:37 58.86748 23.36188 28383 ft 391 kts 224°
2026-04-12 11:37 58.84946 23.32264 28861 ft 390 kts 224°
2026-04-12 11:37 58.83145 23.28353 29343 ft 389 kts 224°
2026-04-12 11:37 58.81348 23.24454 29796 ft 388 kts 224°
2026-04-12 11:38 58.79551 23.20563 30235 ft 388 kts 224°
2026-04-12 11:38 58.77757 23.16684 30611 ft 387 kts 224°
2026-04-12 11:38 58.75962 23.12811 30961 ft 386 kts 224°
2026-04-12 11:38 58.74174 23.08959 31291 ft 386 kts 224°
2026-04-12 11:39 58.72405 23.05153 31605 ft 385 kts 224°
2026-04-12 11:39 58.70613 23.01306 31932 ft 384 kts 224°
2026-04-12 11:39 58.68830 22.97482 32252 ft 384 kts 224°
2026-04-12 11:39 58.67048 22.93669 32551 ft 383 kts 224°
2026-04-12 11:40 58.65270 22.89870 32840 ft 382 kts 224°
2026-04-12 11:40 58.63492 22.86077 33130 ft 381 kts 224°
2026-04-12 11:40 58.61713 22.82287 33411 ft 381 kts 224°
2026-04-12 11:40 58.59944 22.78528 33679 ft 380 kts 224°
2026-04-12 11:41 58.58169 22.74758 33934 ft 379 kts 224°
2026-04-12 11:41 58.56402 22.71013 34209 ft 378 kts 224°
2026-04-12 11:41 58.54639 22.67283 34436 ft 377 kts 225°
2026-04-12 11:41 58.52874 22.63554 34618 ft 377 kts 225°
2026-04-12 11:42 58.51132 22.59880 34790 ft 377 kts 225°
2026-04-12 11:42 58.49371 22.56172 34966 ft 377 kts 225°
2026-04-12 11:42 58.47606 22.52461 35134 ft 376 kts 225°
2026-04-12 11:43 58.44080 22.45069 35456 ft 376 kts 225°
2026-04-12 11:43 58.42319 22.41383 35609 ft 376 kts 225°
2026-04-12 11:43 58.40556 22.37701 35750 ft 376 kts 226°
2026-04-12 11:44 58.37002 22.30297 35777 ft 384 kts 226°
2026-04-12 11:44 58.33354 22.22719 35763 ft 388 kts 226°
2026-04-12 11:44 58.31506 22.18891 35544 ft 398 kts 226°
2026-04-12 11:45 58.29596 22.14939 35281 ft 412 kts 226°
2026-04-12 11:45 58.27622 22.10865 35014 ft 425 kts 226°
2026-04-12 11:45 58.25609 22.06716 34729 ft 439 kts 226°
2026-04-12 11:45 58.23504 22.02386 34442 ft 452 kts 226°
2026-04-12 11:46 58.21340 21.97942 34266 ft 461 kts 226°
2026-04-12 11:46 58.16929 21.88912 34362 ft 470 kts 226°
2026-04-12 11:46 58.14706 21.84373 34555 ft 471 kts 226°
2026-04-12 11:47 58.12470 21.79818 34777 ft 472 kts 226°
2026-04-12 11:47 58.10235 21.75271 35007 ft 472 kts 227°
2026-04-12 11:47 58.07999 21.70730 35236 ft 472 kts 227°
2026-04-12 11:47 58.05785 21.66240 35466 ft 472 kts 227°
2026-04-12 11:48 58.03547 21.61712 35698 ft 472 kts 227°
2026-04-12 11:48 58.01333 21.57146 35925 ft 471 kts 232°
2026-04-12 11:48 57.99619 21.51912 36157 ft 469 kts 247°
2026-04-12 11:48 57.98306 21.46279 36275 ft 469 kts 246°
2026-04-12 11:49 57.96932 21.40685 36283 ft 469 kts 246°
2026-04-12 11:49 57.94200 21.29550 36287 ft 468 kts 246°
2026-04-12 11:50 57.91463 21.18434 36288 ft 468 kts 246°
2026-04-12 11:50 57.88767 21.07379 36287 ft 467 kts 246°
2026-04-12 11:51 57.86054 20.96290 36289 ft 467 kts 246°
2026-04-12 11:51 57.83338 20.85252 36285 ft 465 kts 246°
2026-04-12 11:52 57.80611 20.74226 36284 ft 465 kts 247°
2026-04-12 11:52 57.77884 20.63252 36284 ft 464 kts 247°
2026-04-12 11:53 57.75269 20.52780 36284 ft 462 kts 247°
2026-04-12 11:53 57.72996 20.43716 36288 ft 461 kts 247°
2026-04-12 11:54 57.69962 20.31673 36280 ft 460 kts 247°
2026-04-12 11:54 57.66881 20.21207 36263 ft 463 kts 231°
2026-04-12 11:55 57.62109 20.13058 36278 ft 466 kts 223°
2026-04-12 11:55 57.57179 20.05181 36277 ft 466 kts 223°
2026-04-12 11:56 57.53052 19.98698 36278 ft 466 kts 223°
2026-04-12 11:56 57.48084 19.90935 36276 ft 466 kts 223°
2026-04-12 11:57 57.43118 19.83204 36281 ft 466 kts 223°
2026-04-12 11:57 57.38152 19.75501 36283 ft 465 kts 224°
2026-04-12 11:58 57.33180 19.67818 36276 ft 464 kts 224°
2026-04-12 11:58 57.28223 19.60186 36273 ft 463 kts 224°
2026-04-12 11:59 57.23292 19.52620 36277 ft 462 kts 224°
2026-04-12 11:59 57.18335 19.45044 36276 ft 461 kts 224°
2026-04-12 12:00 57.13388 19.37509 36275 ft 461 kts 224°
2026-04-12 12:00 57.08436 19.29993 36274 ft 460 kts 224°
2026-04-12 12:01 57.03498 19.22525 36270 ft 459 kts 224°
2026-04-12 12:01 56.98596 19.15138 36272 ft 459 kts 223°
2026-04-12 12:02 56.93654 19.07718 36271 ft 458 kts 223°
2026-04-12 12:02 56.88727 19.00344 36272 ft 457 kts 223°
2026-04-12 12:03 56.83783 18.92973 36272 ft 456 kts 223°
2026-04-12 12:03 56.78871 18.85674 36266 ft 456 kts 223°
2026-04-12 12:04 56.73972 18.78419 36268 ft 455 kts 223°
2026-04-12 12:04 56.69078 18.71199 36258 ft 454 kts 223°
2026-04-12 12:05 56.64157 18.63963 36265 ft 453 kts 223°
2026-04-12 12:05 56.59251 18.56773 36259 ft 453 kts 223°
2026-04-12 12:06 56.54355 18.49622 36259 ft 452 kts 223°
2026-04-12 12:06 56.49489 18.42541 36260 ft 452 kts 222°
2026-04-12 12:07 56.44572 18.35409 36258 ft 451 kts 222°
2026-04-12 12:07 56.39689 18.28350 36255 ft 450 kts 222°
2026-04-12 12:08 56.34806 18.21316 36250 ft 449 kts 222°
2026-04-12 12:08 56.29936 18.14319 36248 ft 449 kts 222°
2026-04-12 12:09 56.25044 18.07313 36246 ft 448 kts 222°
2026-04-12 12:09 56.20175 18.00362 36247 ft 447 kts 221°
2026-04-12 12:10 56.15730 17.92728 36247 ft 442 kts 230°
2026-04-12 12:10 56.11506 17.84669 36244 ft 441 kts 230°
2026-04-12 12:11 56.07326 17.76673 36241 ft 441 kts 230°
2026-04-12 12:11 56.03154 17.68716 36242 ft 440 kts 230°
2026-04-12 12:12 55.98965 17.60753 36237 ft 439 kts 230°
2026-04-12 12:12 55.94786 17.52836 36235 ft 439 kts 230°
2026-04-12 12:13 55.90599 17.44930 36235 ft 438 kts 230°
2026-04-12 12:13 55.86408 17.37044 36232 ft 437 kts 230°
2026-04-12 12:14 55.82218 17.29184 36228 ft 436 kts 230°
2026-04-12 12:14 55.78039 17.21374 36229 ft 435 kts 230°
2026-04-12 12:15 55.73884 17.13634 36228 ft 434 kts 230°
2026-04-12 12:15 55.69726 17.05913 36222 ft 433 kts 230°
2026-04-12 12:16 55.65586 16.98250 36223 ft 431 kts 230°
2026-04-12 12:16 55.61448 16.90617 36224 ft 429 kts 230°
2026-04-12 12:17 55.57321 16.83027 36219 ft 427 kts 230°
2026-04-12 12:17 55.53200 16.75475 36214 ft 425 kts 230°
2026-04-12 12:18 55.49116 16.68012 36210 ft 423 kts 230°
2026-04-12 12:18 55.45025 16.60564 36208 ft 421 kts 230°
2026-04-12 12:19 55.40965 16.53193 36205 ft 420 kts 230°
2026-04-12 12:19 55.36902 16.45839 36204 ft 419 kts 230°
2026-04-12 12:20 55.32841 16.38513 36201 ft 418 kts 230°
2026-04-12 12:20 55.28778 16.31207 36199 ft 417 kts 230°
2026-04-12 12:21 55.24748 16.23981 36145 ft 416 kts 230°
2026-04-12 12:21 55.22734 16.20379 35816 ft 409 kts 231°
2026-04-12 12:21 55.20768 16.16866 35473 ft 407 kts 231°
2026-04-12 12:21 55.18772 16.13306 35130 ft 407 kts 231°
2026-04-12 12:22 55.16784 16.09766 34763 ft 407 kts 231°
2026-04-12 12:22 55.14811 16.06257 34298 ft 403 kts 231°
2026-04-12 12:22 55.12864 16.02802 33679 ft 401 kts 232°
2026-04-12 12:22 55.10894 15.99311 33086 ft 402 kts 232°
2026-04-12 12:23 55.08926 15.95827 32530 ft 404 kts 232°
2026-04-12 12:23 55.06966 15.92364 32014 ft 403 kts 232°
2026-04-12 12:23 55.05003 15.88901 31498 ft 400 kts 232°
2026-04-12 12:23 55.03050 15.85457 30977 ft 395 kts 232°
2026-04-12 12:24 55.01117 15.82053 30456 ft 392 kts 232°
2026-04-12 12:24 54.99208 15.78697 29894 ft 388 kts 232°
2026-04-12 12:24 54.97336 15.75410 29347 ft 384 kts 232°
2026-04-12 12:24 54.95460 15.72120 28847 ft 379 kts 231°
2026-04-12 12:25 54.93607 15.68876 28368 ft 374 kts 231°
2026-04-12 12:25 54.91781 15.65725 27870 ft 372 kts 228°
2026-04-12 12:25 54.89679 15.63008 27299 ft 375 kts 223°
2026-04-12 12:25 54.87589 15.60319 26858 ft 370 kts 223°
2026-04-12 12:26 54.85553 15.57655 26409 ft 366 kts 224°
2026-04-12 12:26 54.83547 15.55008 25958 ft 363 kts 224°
2026-04-12 12:26 54.81548 15.52360 25510 ft 360 kts 224°
2026-04-12 12:26 54.79572 15.49739 25060 ft 358 kts 223°
2026-04-12 12:27 54.77593 15.47116 24620 ft 356 kts 223°
2026-04-12 12:27 54.75626 15.44511 24187 ft 354 kts 223°
2026-04-12 12:27 54.73673 15.41926 23752 ft 352 kts 223°
2026-04-12 12:27 54.71740 15.39372 23262 ft 350 kts 223°
2026-04-12 12:28 54.69827 15.36848 22819 ft 347 kts 223°
2026-04-12 12:28 54.67909 15.34319 22406 ft 344 kts 222°
2026-04-12 12:28 54.66006 15.31812 22001 ft 344 kts 222°
2026-04-12 12:28 54.64106 15.29314 21593 ft 349 kts 222°
2026-04-12 12:29 54.62175 15.26778 21184 ft 352 kts 221°
2026-04-12 12:29 54.60218 15.24210 20792 ft 352 kts 221°
2026-04-12 12:29 54.58270 15.21659 20400 ft 351 kts 221°
2026-04-12 12:29 54.56328 15.19117 20005 ft 350 kts 221°
2026-04-12 12:30 54.54390 15.16585 19611 ft 349 kts 220°
2026-04-12 12:30 54.52456 15.14059 19225 ft 347 kts 220°
2026-04-12 12:30 54.50528 15.11546 18836 ft 346 kts 220°
2026-04-12 12:30 54.48635 15.09079 18471 ft 345 kts 220°
2026-04-12 12:31 54.46718 15.06586 18031 ft 344 kts 219°
2026-04-12 12:31 54.44814 15.04110 17628 ft 342 kts 219°
2026-04-12 12:31 54.42919 15.01650 17251 ft 340 kts 219°
2026-04-12 12:31 54.40931 14.99458 16824 ft 342 kts 207°
2026-04-12 12:32 54.38761 14.97826 16459 ft 338 kts 206°
2026-04-12 12:32 54.36624 14.96203 16105 ft 334 kts 206°
2026-04-12 12:32 54.35216 14.95137 15867 ft 331 kts 206°
2026-04-12 12:32 54.32426 14.93028 15385 ft 327 kts 206°
2026-04-12 12:33 54.30337 14.91451 15030 ft 324 kts 206°
2026-04-12 12:33 54.28192 14.90395 14618 ft 327 kts 187°
2026-04-12 12:33 54.25916 14.90753 14256 ft 330 kts 167°
2026-04-12 12:33 54.23757 14.91899 13924 ft 327 kts 165°
2026-04-12 12:34 54.21593 14.93085 13517 ft 325 kts 165°
2026-04-12 12:34 54.19444 14.94283 13127 ft 322 kts 164°
2026-04-12 12:34 54.17334 14.95475 12775 ft 320 kts 164°
2026-04-12 12:34 54.15230 14.96668 12424 ft 322 kts 164°
2026-04-12 12:35 54.13072 14.97894 12042 ft 326 kts 163°
2026-04-12 12:35 54.10913 14.99123 11676 ft 326 kts 163°
2026-04-12 12:35 54.08784 15.00310 11324 ft 322 kts 167°
2026-04-12 12:35 54.06581 15.00630 10944 ft 316 kts 184°
2026-04-12 12:36 54.04400 15.00540 10771 ft 308 kts 182°
2026-04-12 12:36 54.02304 15.00449 10615 ft 298 kts 183°
2026-04-12 12:36 54.00253 15.00351 10500 ft 289 kts 183°
2026-04-12 12:36 53.98290 15.00249 10361 ft 280 kts 183°
2026-04-12 12:37 53.96355 15.00145 10237 ft 272 kts 184°
2026-04-12 12:37 53.94510 14.99857 10032 ft 268 kts 197°
2026-04-12 12:37 53.92870 14.98321 9537 ft 272 kts 222°
2026-04-12 12:37 53.91557 14.96030 9159 ft 273 kts 225°
2026-04-12 12:38 53.90231 14.93672 8753 ft 274 kts 225°
2026-04-12 12:38 53.88926 14.91327 8357 ft 276 kts 225°
2026-04-12 12:38 53.87604 14.88937 7961 ft 277 kts 225°
2026-04-12 12:38 53.86299 14.86567 7561 ft 277 kts 225°
2026-04-12 12:39 53.85000 14.84204 7160 ft 268 kts 225°
2026-04-12 12:39 53.83745 14.81924 6748 ft 262 kts 225°
2026-04-12 12:39 53.82523 14.79697 6311 ft 257 kts 225°
2026-04-12 12:39 53.81310 14.77490 5956 ft 249 kts 224°
2026-04-12 12:40 53.80162 14.75401 5648 ft 241 kts 224°
2026-04-12 12:40 53.79016 14.73325 5233 ft 240 kts 224°
2026-04-12 12:40 53.77829 14.71419 4804 ft 235 kts 218°
2026-04-12 12:40 53.76586 14.69628 4402 ft 231 kts 218°
2026-04-12 12:41 53.75383 14.67878 4067 ft 227 kts 218°
2026-04-12 12:41 53.74206 14.66160 3712 ft 221 kts 216°
2026-04-12 12:41 53.72878 14.65077 3469 ft 204 kts 185°
2026-04-12 12:41 53.71533 14.65508 3237 ft 195 kts 153°
2026-04-12 12:42 53.70529 14.66934 2975 ft 187 kts 135°
2026-04-12 12:42 53.68821 14.70145 2499 ft 178 kts 134°
2026-04-12 12:42 53.68017 14.71680 2341 ft 170 kts 133°
2026-04-12 12:43 53.67273 14.73127 2211 ft 160 kts 133°
2026-04-12 12:43 53.66555 14.74492 2067 ft 150 kts 133°
2026-04-12 12:43 53.65868 14.75820 1801 ft 151 kts 134°
2026-04-12 12:43 53.65183 14.77131 1745 ft 149 kts 133°
2026-04-12 12:44 53.64491 14.78484 1741 ft 152 kts 133°
2026-04-12 12:44 53.63801 14.79835 1655 ft 152 kts 132°
2026-04-12 12:44 53.63123 14.81165 1452 ft 146 kts 133°
2026-04-12 12:44 53.62479 14.82404 1202 ft 134 kts 133°
2026-04-12 12:45 53.61899 14.83570 971 ft 129 kts 132°
2026-04-12 12:45 53.61314 14.84697 749 ft 127 kts 131°
2026-04-12 12:45 53.60746 14.85804 618 ft 127 kts 132°
2026-04-12 12:45 53.60167 14.86946 436 ft 128 kts 132°
2026-04-12 12:46 53.59580 14.88079 281 ft 127 kts 131°
2026-04-12 12:46 53.59002 14.89202 147 ft 122 kts 131°
2026-04-12 12:46 53.58526 14.90117 150 ft 76 kts 131°
2026-04-12 12:46 53.58267 14.90622 155 ft 35 kts 131°
2026-04-12 12:47 53.58115 14.90918 160 ft 33 kts 130°
2026-04-12 12:47 53.58017 14.91108 164 ft 32 kts 130°
2026-04-12 12:47 53.57830 14.91475 167 ft 28 kts 131°
2026-04-12 12:47 53.57776 14.91594 168 ft 12 kts 112°
2026-04-12 12:48 53.57811 14.91720 167 ft 14 kts 39°
2026-04-12 12:48 53.57903 14.91745 167 ft 16 kts 321°
2026-04-12 12:48 53.57982 14.91590 166 ft 19 kts 309°
2026-04-12 12:48 53.58076 14.91410 164 ft 22 kts 311°
2026-04-12 12:49 53.58188 14.91197 162 ft 26 kts 311°
2026-04-12 12:49 53.58314 14.90954 158 ft 30 kts 310°
2026-04-12 12:49 53.58457 14.90673 154 ft 33 kts 311°
2026-04-12 12:49 53.58584 14.90427 150 ft 28 kts 311°
2026-04-12 12:50 53.58720 14.90166 146 ft 25 kts 311°
2026-04-12 12:50 53.58829 14.89955 144 ft 26 kts 311°
2026-04-12 12:50 53.58953 14.89715 140 ft 29 kts 310°
2026-04-12 12:50 53.59050 14.89526 137 ft 17 kts 311°
2026-04-12 12:51 53.59136 14.89363 135 ft 20 kts 311°
2026-04-12 12:51 53.59218 14.89201 133 ft 14 kts 310°
2026-04-12 12:51 53.59260 14.89154 133 ft 7 kts 15°
2026-04-12 12:51 53.59285 14.89227 133 ft 8 kts 51°
2026-04-12 12:52 53.59302 14.89253 133 ft 3 kts 40°
2026-04-12 12:52 53.59311 14.89266 133 ft 0 kts 40°
2026-04-12 12:52 53.59312 14.89266 133 ft 0 kts 40°